Flag for United Kingdom Weather past 2 weeks in Lerwick (Shetland Islands), Scotland, United Kingdom

54 °F

Low clouds.

Feels Like: 49 °F
Forecast: 51 / 53 °F
Wind: 20 mph from South

Location: Lerwick

Current Time: Oct 9, 2015 at 3:24:31 PM

Latest Report: Oct 9, 2015 at 2:00 PM

Visibility: 16 mi

Pressure: 30.10 "Hg

Humidity: 83%

Dew point: 49 °F

Location of Lerwick (Shetland Islands)Location

Historic Weather in Lerwick (Shetland Islands) — Graph


Lerwick (Shetland Islands) temperature yesterday

Maximum temperature yesterday: 53 °F (at 2:00 PM)
Minimum temperature yesterday: 44 °F (at 8:00 PM)
Average temperature yesterday: 50 °F

Past Weeks' High & Low Weather Summary

High58 °F (Sep 29, 1:00 PM)100% (Sep 28, 10:00 AM)30.58 "Hg (Sep 28, 10:00 AM)
Low44 °F (Oct 2, 9:00 PM)69% (Sep 29, 1:00 PM)29.47 "Hg (Sep 24, 2:00 PM)
Average52 °F90%30.08 "Hg
* Reported Sep 24 2:00 PM — Oct 9 2:00 PM, Lerwick (Shetland Islands), Weather by CustomWeather, © 2015

Note: Actual official high and low records may vary slightly from our data, if they occured in-between our weather recording intervals... More about our weather records


Lerwick (Shetland Islands) weather history for previous 24 hours

Time TempWeatherWind HumidityBarometerVisibility
2:00 PM
Fri, Oct 9
54 °FLow clouds.20 mph83%30.10 "Hg16 mi
1:00 PM54 °FPartly sunny.18 mph79%30.09 "Hg25 mi
12:00 PM53 °FPassing clouds.18 mph87%30.09 "Hg16 mi
11:00 AM53 °FScattered clouds.18 mph88%30.10 "Hg12 mi
10:00 AM51 °FPartly sunny.20 mph90%30.09 "Hg16 mi
9:00 AM52 °FLow clouds.15 mph96%30.09 "Hg11 mi
8:00 AM51 °FPartly sunny.16 mph96%30.09 "Hg9 mi
7:00 AM49 °FPassing clouds.10 mph97%30.08 "Hg6 mi
6:00 AM48 °FPassing clouds.10 mph95%30.08 "Hg9 mi
5:00 AM48 °FClear.12 mph95%30.09 "Hg11 mi
4:00 AM47 °FClear.6 mph97%30.09 "Hg6 mi
3:00 AM45 °FClear.6 mph97%30.09 "Hg7 mi
2:00 AM45 °FClear.7 mph99%30.09 "Hg5 mi
1:00 AM44 °FFog.5 mph99%30.09 "Hg2 mi
12:00 AM46 °FPassing clouds.6 mph97%30.09 "Hg6 mi
11:00 PM
Thu, Oct 8
45 °FPassing clouds.5 mph97%30.09 "Hg5 mi
9:00 PM45 °FPassing clouds.3 mph96%30.08 "Hg13 mi
8:00 PM44 °FPassing clouds.3 mph97%30.07 "Hg12 mi
7:00 PM47 °FPassing clouds.3 mph92%30.06 "Hg19 mi
6:00 PM50 °FPassing clouds.6 mph85%30.04 "Hg19 mi
5:00 PM52 °FPassing clouds.9 mph76%30.03 "Hg28 mi
4:00 PM53 °FCool.10 mph77%30.01 "Hg19 mi
3:00 PM53 °FScattered clouds.12 mph76%30.01 "Hg16 mi
Weather by CustomWeather, © 2015

See weather overviewHow to use our weather pages